User: anonymous   Login
Location: Starry Hill Observatory
(46.8582°N, 122.3590°W)
Time: 01:22:12
(UTC-07:00)
Language:

Cosmos 1300 Rocket - Orbit

View from above orbital plane
View from above orbital plane
View from above satellite
View from above satellite

Ground track
Ground track

The orbit data is extracted from the following two-line orbital elements,

1 12786U 81082B   15111.15895590  .00000690  00000-0  79013-4 0  9993
2 12786 082.4901 350.3141 0017116 340.7333 019.3233 14.84434146817899
Epoch (UTC): 21 April 2015 03:48:53
Eccentricity: 0.0017116
inclination: 82.4901°
perigee height: 603 km
apogee height: 627 km
right ascension of ascending node: 350.3141°
argument of perigee: 340.7333°
revolutions per day: 14.84434146
mean anomaly at epoch: 19.3233°
orbit number at epoch: 81789

The dashed part of the orbit path shows where the satellite is in the earth's shadow,  

DLR